Regional Weather Roundup
Issued by NWS Cleveland, OH

Home | Current Version | Previous Version | Text Only | Print | Product List | Glossary Off
Versions: 1 2 3 4 5 6 7 8 9 10 11 12 13 14 15 16 17 18 19 20 21 22 23 24 25 26 27 28 29 30 31 32 33 34 35 36 37 38 39 40 41 42 43 44 45 46 47 48 49 50

000
ASUS41 KCLE 201500
RWRCLE
OHIO REGIONAL WEATHER ROUNDUP
NATIONAL WEATHER SERVICE WILMINGTON, OH
1100 AM EDT SUN APR 20 2014

NOTE: "FAIR" INDICATES FEW OR NO CLOUDS BELOW 12,000 FEET WITH NO
SIGNIFICANT WEATHER AND/OR OBSTRUCTIONS TO VISIBILITY.

OHZ001>008-015>018-024>027-034-035-043-044-201600-
   NORTHWEST OHIO

CITY           SKY/WX    TMP DP  RH WIND       PRES   REMARKS
DEFIANCE       SUNNY     57  34  41 VRB5      30.29S
FINDLAY        SUNNY     61  32  33 S6        30.27S
TOLEDO EXPRESS SUNNY     58  32  37 SE7       30.28F
TOLEDO METCALF SUNNY     59  36  42 SE5       30.28F
LIMA           SUNNY     64  32  30 SE8       30.26F
$$

OHZ009>014-019>023-028>033-038-089-201600-
   NORTHEAST OHIO

CITY           SKY/WX    TMP DP  RH WIND       PRES   REMARKS
CLE-HOPKINS    MOSUNNY   65  31  28 SE12      30.31F
CLE-LAKEFRONT  SUNNY     62  30  29 S10       30.28F
CUY CO. ARPT   PTSUNNY   63  30  29 S16       30.30F
LORAIN-ELYRIA  SUNNY     64  34  32 S10       30.29F
ASHTABULA      SUNNY     59  28  30 S13       30.33F
AKRON-CANTON   PTSUNNY   63  27  25 SE9       30.31F
WOOSTER        NOT AVBL
MANSFIELD      SUNNY     61  36  39 SE8       30.29F
YOUNGSTOWN     PTSUNNY   58  26  29 S6        30.33F
$$

OHZ042-051>053-060>062-070>072-077>081-201600-
  SOUTHWEST OHIO

CITY           SKY/WX    TMP DP  RH WIND       PRES   REMARKS
CINC-COVINGTON MOSUNNY   63  35  35 SE3       30.26F
CINC-LUNKEN    SUNNY     59  38  45 CALM      30.28S
HAMILTON       SUNNY     62  37  39 CALM      30.28F
DAYTON         NOT AVBL
WRIGHT-PAT AFB SUNNY     61  35  38 SE6       30.27F
DAYTON GENERAL SUNNY     61  37  41 SE6       30.26F
WILMINGTON     SUNNY     61  35  37 SE6       30.27S
$$

OHZ036-037-039>041-045>050-054>059-063>069-073>076-082>088-201600-
  CENTRAL AND SOUTHEAST OHIO

CITY           SKY/WX    TMP DP  RH WIND       PRES   REMARKS
COLUMBUS       PTSUNNY   63  35  35 SE8       30.28S
OSU AIRPORT    SUNNY     60  32  34 S5        30.28F
BOLTON FIELD   SUNNY     57  37  47 SE5       30.29S
RICKENBACK AFB NOT AVBL
NEWARK         SUNNY     62  35  36 S8        30.28F
MARION         SUNNY     61  33  35 S7        30.28F
LANCASTER      SUNNY     63  38  39 SE9       30.28F
ZANESVILLE     MOSUNNY   65  33  30 S9        30.29F
NEW PHILLY     MOSUNNY   63  29  27 SE9       30.31F
$$



USA.gov is the U.S. government's official web portal to all federal, state and local government web resources and services.